Ft. Stewart, GA

10:09 PM EDT on March 24, 2017 (GMT -0400)
Wright Army Air Field

Weather History for KLHW - August, 2011

Change the Weather History Date:

Monday, August 8, 2011

  Actual Average Record
Temperature  
Mean Temperature 88 °F -  
Max Temperature 100 °F 92 °F 100 °F (1968)
Min Temperature 76 °F 71 °F 64 °F (2002)
Cooling Degree Days 23    
Growing Degree Days 38 (Base 50)    
Moisture  
Dew Point 72 °F    
Average Humidity 70    
Maximum Humidity 89    
Minimum Humidity 42    
Precipitation  
Precipitation 0.48 in - - ()
Sea Level Pressure  
Sea Level Pressure 29.80 in    
Wind  
Wind Speed 11 mph (WSW)    
Max Wind Speed 38 mph    
Max Gust Speed 54 mph    
Visibility 8 miles    
Events Rain , Thunderstorm    
Averages and records for this station are not official NWS values.
T = Trace of Precipitation, MM = Missing Value Source: NWS Daily Summary

Daily Weather History Graph

Daily Weather History Graph

Search for Another Location

Airport or City:

Trip Planner

Search our weather history database for the weather conditions in past years. The results will help you decide how hot, cold, wet, or windy it might be!

Date:

Astronomy

Aug. 08, 2011 Rise Set
Actual Time 6:46 AM EDT 8:17 PM EDT
Civil Twilight 6:20 AM EDT 8:43 PM EDT
Nautical Twilight 5:48 AM EDT 9:14 PM EDT
Astronomical Twilight 5:15 AM EDT 9:47 PM EDT
Moon 4:22 PM EDT (8/8) 1:44 AM EDT (8/8)
Length of Visible Light 14h 23m
Length of Day
13h 30m
Waxing Gibbous, 74% of the Moon is Illuminated
Aug 8
Waxing Gibbous
Aug 13
Full
Aug 21
Last Quarter
Aug 28
New
Sep 4
First Quarter

Hourly Weather History & Observations

Time (EDT) Temp. Heat Index Dew Point Humidity Pressure Visibility Wind Dir Wind Speed Gust Speed Precip Events Conditions
12:55 AM 82.6 °F 89.9 °F 75.4 °F 79% 29.85 in 10.0 mi WSW 8.1 mph - N/A   Clear
1:55 AM 81.9 °F 88.7 °F 75.6 °F 81% 29.84 in 10.0 mi SW 6.9 mph - N/A   Partly Cloudy
2:55 AM 81.1 °F 87.4 °F 75.4 °F 83% 29.83 in 10.0 mi WSW 8.1 mph - N/A   Mostly Cloudy
3:55 AM 80.8 °F 86.5 °F 75.2 °F 83% 29.83 in 10.0 mi West 6.9 mph - N/A   Overcast
4:55 AM 79.7 °F - 75.0 °F 86% 29.81 in 10.0 mi WSW 6.9 mph - N/A   Clear
5:55 AM 78.8 °F - 75.0 °F 88% 29.81 in 10.0 mi WSW 6.9 mph - N/A   Scattered Clouds
6:55 AM 78.4 °F - 75.0 °F 89% 29.83 in 10.0 mi SW 5.8 mph - N/A   Overcast
7:55 AM 79.5 °F - 75.4 °F 87% 29.84 in 10.0 mi WSW 8.1 mph - N/A   Mostly Cloudy
8:55 AM 82.4 °F 89.8 °F 75.6 °F 80% 29.85 in 10.0 mi WSW 8.1 mph - N/A   Clear
9:55 AM 86.4 °F 96.0 °F 75.6 °F 70% 29.86 in 10.0 mi West 10.4 mph - N/A   Clear
10:55 AM 90.1 °F 101.8 °F 75.9 °F 63% 29.86 in 10.0 mi WSW 11.5 mph - N/A   Partly Cloudy
11:55 AM 92.8 °F 104.1 °F 75.2 °F 56% 29.85 in 10.0 mi WSW 12.7 mph - N/A   Partly Cloudy
12:55 PM 94.6 °F 104.4 °F 73.2 °F 50% 29.83 in 10.0 mi WSW 9.2 mph - N/A   Clear
1:55 PM 97.0 °F 104.8 °F 70.9 °F 43% 29.80 in 10.0 mi SW 10.4 mph - N/A   Clear
2:55 PM 98.4 °F 108.0 °F 72.3 °F 43% 29.78 in 10.0 mi West 8.1 mph 16.1 mph N/A   Clear
3:55 PM 97.5 °F 108.2 °F 73.8 °F 46% 29.75 in 10.0 mi West 4.6 mph - N/A   Partly Cloudy
4:55 PM 100.2 °F 111.4 °F 73.4 °F 42% 29.74 in 10.0 mi Variable 4.6 mph - N/A   Scattered Clouds
5:55 PM 96.8 °F 109.6 °F 75.2 °F 50% 29.73 in 10.0 mi SW 8.1 mph - N/A   Mostly Cloudy
6:32 PM 96.8 °F 109.6 °F 75.2 °F 50% 29.73 in 10.0 mi SW 12.7 mph 21.9 mph N/A Thunderstorm Thunderstorm
6:55 PM 95.4 °F 105.4 °F 73.2 °F 49% 29.76 in 10.0 mi NW 21.9 mph 26.5 mph N/A Thunderstorm Thunderstorm
6:58 PM 93.2 °F 100.5 °F 71.6 °F 49% 29.75 in 10.0 mi NW 17.3 mph 26.5 mph N/A Thunderstorm Thunderstorm
7:00 PM 91.4 °F 98.4 °F 71.6 °F 52% 29.75 in 10.0 mi NW 12.7 mph 26.5 mph N/A Thunderstorm Scattered Clouds
7:14 PM 86.0 °F 89.4 °F 68.0 °F 55% 29.76 in 10.0 mi NW 20.7 mph 28.8 mph N/A Thunderstorm Thunderstorm
7:31 PM 84.2 °F 87.3 °F 68.0 °F 58% 29.79 in 8.0 mi WNW 16.1 mph 25.3 mph N/A Rain , Thunderstorm Light Thunderstorms and Rain
7:33 PM 82.4 °F 86.3 °F 69.8 °F 66% 29.80 in 2.5 mi West 26.5 mph 41.4 mph N/A Rain , Thunderstorm Light Thunderstorms and Rain
7:34 PM 82.4 °F 86.3 °F 69.8 °F 66% 29.80 in 0.8 mi West 38.0 mph - N/A Rain , Thunderstorm Light Thunderstorms and Rain
7:35 PM 82.4 °F 86.3 °F 69.8 °F 66% 29.83 in 0.5 mi West 35.7 mph 54.1 mph N/A Rain , Thunderstorm Heavy Thunderstorms and Rain
7:37 PM 80.6 °F 83.9 °F 69.8 °F 70% 29.82 in 0.2 mi WNW 19.6 mph 54.1 mph N/A Rain , Thunderstorm Heavy Thunderstorms and Rain
7:41 PM 78.8 °F - 69.8 °F 74% 29.78 in 0.2 mi ENE 27.6 mph 54.1 mph N/A Rain , Thunderstorm Heavy Thunderstorms and Rain
7:42 PM 78.8 °F - 69.8 °F 74% 29.78 in 0.2 mi ENE 23.0 mph 54.1 mph N/A Rain , Thunderstorm Heavy Thunderstorms and Rain
7:43 PM 78.8 °F - 69.8 °F 74% 29.78 in 0.2 mi ENE 17.3 mph 54.1 mph N/A Rain , Thunderstorm Heavy Thunderstorms and Rain
7:44 PM 78.8 °F - 69.8 °F 74% 29.78 in 0.2 mi NE 12.7 mph 54.1 mph N/A Rain , Thunderstorm Light Thunderstorms and Rain
7:47 PM 78.8 °F - 69.8 °F 74% 29.78 in 0.8 mi SE 8.1 mph 40.3 mph N/A Rain , Thunderstorm Light Thunderstorms and Rain
7:48 PM 78.8 °F - 69.8 °F 74% 29.78 in 1.0 mi South 9.2 mph 40.3 mph N/A Rain , Thunderstorm Light Thunderstorms and Rain
7:49 PM 78.8 °F - 69.8 °F 74% 29.78 in 1.5 mi South 9.2 mph 40.3 mph N/A Rain , Thunderstorm Light Thunderstorms and Rain
7:50 PM 78.8 °F - 69.8 °F 74% 29.78 in 3.0 mi South 10.4 mph 40.3 mph N/A Rain , Thunderstorm Light Thunderstorms and Rain
7:55 PM 78.3 °F - 70.7 °F 77% 29.79 in 10.0 mi ESE 11.5 mph - 0.48 in Rain , Thunderstorm Light Thunderstorms and Rain
8:02 PM 78.8 °F - 71.6 °F 78% 29.78 in 10.0 mi East 5.8 mph - N/A Thunderstorm Thunderstorm
8:15 PM 78.8 °F - 71.6 °F 78% 29.79 in 10.0 mi Variable 4.6 mph - N/A   Scattered Clouds
8:55 PM 76.8 °F - 72.7 °F 87% 29.81 in 10.0 mi Calm Calm - 0.00 in   Clear
9:04 PM 77.0 °F - 73.4 °F 89% 29.81 in 10.0 mi WSW 4.6 mph - N/A Thunderstorm Thunderstorm
9:19 PM 77.0 °F - 73.4 °F 89% 29.82 in 10.0 mi Calm Calm - N/A   Scattered Clouds
9:55 PM 79.0 °F - 74.5 °F 86% 29.82 in 10.0 mi SSW 4.6 mph - N/A   Partly Cloudy
10:55 PM 79.2 °F - 74.3 °F 85% 29.83 in 10.0 mi WNW 6.9 mph - N/A   Clear
11:55 PM 78.3 °F - 70.9 °F 78% 29.84 in 10.0 mi West 5.8 mph - N/A   Scattered Clouds